Terug naar catalogus

STARLINK-4199

ActiefCommunicatieVLEO
NORAD 52857·PAYLOAD·🇺🇸 United States

Gelanceerd Jun 17, 2022 vanaf Cape Canaveral Space Force Station

Loading…

Volgende Passages (komende 24 uur)

TLE

VersSource: CelesTrak SupGP

Epoch: Sep 15, 2026, 01:31 UTC

1 52857C 22062AD  26258.06368056 -.00021167  00000+0 -62543-3 0  2585
2 52857  53.1572 243.4835 0001302  95.3613 308.4232 15.34399299    11

Volg STARLINK-4199 in realtime met AllMySat

Download on the App Store